| time (UTC) | temp F | wind direction | speed MPH | gust MPH | rain 1hr in | rain 24hr in | rain mn in | humidity % | barometer mb |
| 20260508204503 | 72 | 106 | 2.0 | 6.0 | 0.00 | 0.00 | 0.00 | 32 | 1015.7 |
| 20260508203603 | 72 | 90 | 3.0 | 7.0 | 0.00 | 0.00 | 0.00 | 32 | 1015.8 |
| 20260508202703 | 73 | 105 | 2.0 | 5.0 | 0.00 | 0.00 | 0.00 | 34 | 1015.8 |
| 20260508202017 | 72 | 108 | 2.0 | 8.0 | 0.00 | 0.00 | 0.00 | 33 | 1015.8 |
| 20260508200903 | 72 | 136 | 2.0 | 6.0 | 0.00 | 0.00 | 0.00 | 34 | 1015.8 |
| 20260508200003 | 71 | 214 | 1.0 | 3.0 | 0.00 | 0.00 | 0.00 | 37 | 1016.0 |
| 20260508195619 | 71 | 252 | 1.0 | 3.0 | 0.00 | 0.00 | 0.00 | 36 | 1015.9 |
| 20260508194503 | 71 | 225 | 2.0 | 7.0 | 0.00 | 0.00 | 0.00 | 36 | 1016.1 |
| 20260508193603 | 71 | 138 | 2.0 | 9.0 | 0.00 | 0.00 | 0.00 | 36 | 1016.1 |
| 20260508192703 | 71 | 197 | 2.0 | 4.0 | 0.00 | 0.00 | 0.00 | 35 | 1016.1 |
| 20260508191803 | 71 | 175 | 2.0 | 5.0 | 0.00 | 0.00 | 0.00 | 36 | 1016.1 |
| 20260508191115 | 70 | 197 | 1.0 | 5.0 | 0.00 | 0.00 | 0.00 | 35 | 1016.1 |
| 20260508190003 | 70 | 120 | 1.0 | 4.0 | 0.00 | 0.00 | 0.00 | 37 | 1016.2 |
| 20260508185403 | 70 | 211 | 1.0 | 4.0 | 0.00 | 0.00 | 0.00 | 38 | 1016.4 |
| 20260508184503 | 69 | 204 | 2.0 | 5.0 | 0.00 | 0.00 | 0.00 | 39 | 1016.4 |
| 20260508183603 | 68 | 126 | 2.0 | 6.0 | 0.00 | 0.00 | 0.00 | 38 | 1016.5 |
| 20260508182703 | 67 | 255 | 1.0 | 3.0 | 0.00 | 0.00 | 0.00 | 43 | 1016.8 |
| 20260508181803 | 67 | 109 | 2.0 | 6.0 | 0.00 | 0.00 | 0.00 | 44 | 1016.9 |
| 20260508180903 | 66 | 245 | 2.0 | 4.0 | 0.00 | 0.00 | 0.00 | 42 | 1017.0 |
| 20260508180218 | 66 | 235 | 2.0 | 5.0 | 0.00 | 0.00 | 0.00 | 45 | 1016.9 |
| 20260508175618 | 66 | 236 | 2.0 | 5.0 | 0.00 | 0.00 | 0.00 | 46 | 1017.0 |
| 20260508174503 | 66 | 158 | 2.0 | 8.0 | 0.00 | 0.00 | 0.00 | 45 | 1017.2 |
| 20260508173603 | 65 | 290 | 2.0 | 4.0 | 0.00 | 0.00 | 0.00 | 46 | 1017.3 |
| 20260508172703 | 64 | 223 | 1.0 | 4.0 | 0.00 | 0.00 | 0.00 | 44 | 1017.4 |
| 20260508171803 | 63 | 256 | 1.0 | 4.0 | 0.00 | 0.00 | 0.00 | 49 | 1017.4 |
| 20260508170903 | 63 | 252 | 1.0 | 5.0 | 0.00 | 0.00 | 0.00 | 45 | 1017.5 |
| 20260508170003 | 63 | 251 | 1.0 | 5.0 | 0.00 | 0.00 | 0.00 | 49 | 1017.5 |
| 20260508165403 | 62 | 275 | 1.0 | 3.0 | 0.00 | 0.00 | 0.00 | 50 | 1017.6 |
| 20260508164717 | 62 | 279 | 1.0 | 4.0 | 0.00 | 0.00 | 0.00 | 52 | 1017.7 |
| 20260508163603 | 60 | 346 | 1.0 | 7.0 | 0.00 | 0.00 | 0.00 | 51 | 1017.5 |
| 20260508162916 | 60 | 272 | 1.0 | 3.0 | 0.00 | 0.00 | 0.00 | 57 | 1017.6 |
| 20260508161803 | 59 | 312 | 1.0 | 4.0 | 0.00 | 0.00 | 0.00 | 50 | 1017.7 |
| 20260508160903 | 59 | 289 | 3.0 | 7.0 | 0.00 | 0.00 | 0.00 | 52 | 1017.8 |
| 20260508160003 | 58 | 290 | 3.0 | 9.0 | 0.00 | 0.00 | 0.00 | 53 | 1017.8 |
| 20260508155403 | 58 | 300 | 2.0 | 5.0 | 0.00 | 0.00 | 0.00 | 54 | 1017.7 |
| 20260508154503 | 57 | 288 | 3.0 | 7.0 | 0.00 | 0.00 | 0.00 | 55 | 1017.7 |
| 20260508153816 | 56 | 291 | 3.0 | 7.0 | 0.00 | 0.00 | 0.00 | 58 | 1017.8 |
| 20260508152703 | 55 | 289 | 3.0 | 11.0 | 0.00 | 0.00 | 0.00 | 59 | 1017.9 |
| 20260508151803 | 54 | 288 | 4.0 | 11.0 | 0.00 | 0.00 | 0.00 | 58 | 1017.9 |
| 20260508151118 | 54 | 291 | 4.0 | 11.0 | 0.00 | 0.00 | 0.00 | 61 | 1017.9 |
| 20260508150217 | 54 | 291 | 6.0 | 13.0 | 0.00 | 0.00 | 0.00 | 60 | 1018.0 |
| 20260508145403 | 54 | 293 | 5.0 | 11.0 | 0.00 | 0.00 | 0.00 | 61 | 1018.0 |
| 20260508144503 | 53 | 283 | 7.0 | 13.0 | 0.00 | 0.00 | 0.00 | 62 | 1018.2 |
| 20260508143603 | 53 | 290 | 6.0 | 13.0 | 0.00 | 0.00 | 0.00 | 61 | 1018.2 |
| 20260508142703 | 54 | 288 | 4.0 | 13.0 | 0.00 | 0.00 | 0.00 | 58 | 1018.4 |
| 20260508141803 | 56 | 332 | 2.0 | 10.0 | 0.00 | 0.00 | 0.00 | 57 | 1018.3 |
| 20260508140903 | 56 | 332 | 2.0 | 10.0 | 0.00 | 0.00 | 0.00 | 56 | 1018.2 |
| 20260508140003 | 56 | 289 | 1.0 | 3.0 | 0.00 | 0.00 | 0.00 | 53 | 1017.8 |
| 20260508135403 | 55 | 276 | 1.0 | 2.0 | 0.00 | 0.00 | 0.00 | 54 | 1017.6 |
| 20260508134503 | 55 | 287 | 0.0 | 3.0 | 0.00 | 0.00 | 0.00 | 55 | 1017.2 |
| 20260508133603 | 53 | 0 | 0.0 | 0.0 | 0.00 | 0.00 | 0.00 | 60 | 1016.9 |
| 20260508132703 | 51 | 0 | 0.0 | 0.0 | 0.00 | 0.00 | 0.00 | 63 | 1016.7 |
| 20260508131803 | 49 | 0 | 0.0 | 0.0 | 0.00 | 0.00 | 0.00 | 65 | 1016.6 |
| 20260508130903 | 48 | 254 | 0.0 | 1.0 | 0.00 | 0.00 | 0.00 | 67 | 1016.7 |
| 20260508130003 | 47 | 251 | 0.0 | 2.0 | 0.00 | 0.00 | 0.00 | 70 | 1016.6 |
| 20260508125616 | 46 | 188 | 0.0 | 2.0 | 0.00 | 0.00 | 0.00 | 69 | 1016.5 |
| 20260508124715 | 45 | 188 | 0.0 | 2.0 | 0.00 | 0.00 | 0.00 | 72 | 1016.5 |
| 20260508123603 | 44 | 261 | 1.0 | 3.0 | 0.00 | 0.00 | 0.00 | 72 | 1016.4 |
| 20260508122703 | 44 | 265 | 1.0 | 4.0 | 0.00 | 0.00 | 0.00 | 72 | 1016.4 |
| 20260508121803 | 44 | 4 | 0.0 | 2.0 | 0.00 | 0.00 | 0.00 | 71 | 1016.2 |
| 20260508120903 | 44 | 327 | 1.0 | 5.0 | 0.00 | 0.00 | 0.00 | 71 | 1016.0 |
| 20260508120003 | 45 | 294 | 1.0 | 4.0 | 0.00 | 0.00 | 0.00 | 69 | 1015.9 |
| 20260508115403 | 45 | 290 | 1.0 | 4.0 | 0.00 | 0.00 | 0.00 | 69 | 1015.8 |
| 20260508114503 | 45 | 272 | 1.0 | 3.0 | 0.00 | 0.00 | 0.00 | 69 | 1015.8 |
| 20260508113603 | 46 | 308 | 1.0 | 4.0 | 0.00 | 0.00 | 0.00 | 68 | 1015.6 |
| 20260508112703 | 46 | 346 | 1.0 | 3.0 | 0.00 | 0.00 | 0.00 | 68 | 1015.4 |
| 20260508111803 | 46 | 302 | 0.0 | 2.0 | 0.00 | 0.00 | 0.00 | 67 | 1015.8 |
| 20260508110903 | 46 | 301 | 1.0 | 3.0 | 0.00 | 0.00 | 0.00 | 67 | 1015.7 |
| 20260508110003 | 46 | 288 | 1.0 | 4.0 | 0.00 | 0.00 | 0.00 | 66 | 1015.6 |
| 20260508105403 | 46 | 308 | 1.0 | 4.0 | 0.00 | 0.00 | 0.00 | 66 | 1015.6 |
| 20260508104503 | 46 | 302 | 1.0 | 3.0 | 0.00 | 0.00 | 0.00 | 67 | 1015.5 |
| 20260508103818 | 46 | 302 | 1.0 | 3.0 | 0.00 | 0.00 | 0.00 | 67 | 1015.6 |
| 20260508102703 | 47 | 278 | 1.0 | 6.0 | 0.00 | 0.00 | 0.00 | 68 | 1015.7 |
| 20260508102017 | 47 | 0 | 0.0 | 0.0 | 0.00 | 0.00 | 0.00 | 68 | 1015.6 |
| 20260508100903 | 47 | 0 | 0.0 | 0.0 | 0.00 | 0.00 | 0.00 | 67 | 1015.7 |
| 20260508100003 | 48 | 212 | 0.0 | 2.0 | 0.00 | 0.00 | 0.00 | 67 | 1015.8 |
| 20260508095403 | 48 | 169 | 0.0 | 1.0 | 0.00 | 0.00 | 0.00 | 66 | 1015.7 |
| 20260508094503 | 48 | 169 | 0.0 | 1.0 | 0.00 | 0.00 | 0.00 | 66 | 1015.9 |
| 20260508093603 | 49 | 0 | 0.0 | 0.0 | 0.00 | 0.00 | 0.00 | 65 | 1015.8 |
| 20260508092917 | 49 | 0 | 0.0 | 0.0 | 0.00 | 0.00 | 0.00 | 64 | 1016.0 |
| 20260508091803 | 50 | 169 | 0.0 | 1.0 | 0.00 | 0.00 | 0.00 | 62 | 1015.8 |
| 20260508090903 | 50 | 0 | 0.0 | 1.0 | 0.00 | 0.00 | 0.00 | 62 | 1015.8 |
| 20260508090003 | 50 | 0 | 0.0 | 0.0 | 0.00 | 0.00 | 0.00 | 62 | 1016.0 |
| 20260508085619 | 50 | 169 | 0.0 | 2.0 | 0.00 | 0.00 | 0.00 | 62 | 1016.0 |
| 20260508084718 | 51 | 180 | 0.0 | 2.0 | 0.00 | 0.00 | 0.00 | 61 | 1016.1 |
| 20260508083603 | 51 | 294 | 0.0 | 1.0 | 0.00 | 0.00 | 0.00 | 60 | 1016.1 |
| 20260508082703 | 51 | 351 | 0.0 | 2.0 | 0.00 | 0.00 | 0.00 | 60 | 1016.2 |
| 20260508082016 | 52 | 67 | 0.0 | 1.0 | 0.00 | 0.00 | 0.00 | 59 | 1016.2 |
| 20260508081119 | 52 | 70 | 0.0 | 1.0 | 0.00 | 0.00 | 0.00 | 57 | 1016.2 |
| 20260508080219 | 53 | 0 | 0.0 | 0.0 | 0.00 | 0.00 | 0.00 | 56 | 1016.3 |
| 20260508075403 | 53 | 53 | 0.0 | 2.0 | 0.00 | 0.00 | 0.00 | 55 | 1016.3 |
| 20260508074503 | 54 | 58 | 0.0 | 2.0 | 0.00 | 0.00 | 0.00 | 54 | 1016.3 |
| 20260508073817 | 54 | 72 | 1.0 | 3.0 | 0.00 | 0.00 | 0.00 | 54 | 1016.3 |
| 20260508072703 | 54 | 68 | 0.0 | 2.0 | 0.00 | 0.00 | 0.00 | 53 | 1016.4 |
| 20260508071803 | 54 | 57 | 1.0 | 4.0 | 0.00 | 0.00 | 0.00 | 53 | 1016.5 |
| 20260508070903 | 54 | 92 | 1.0 | 3.0 | 0.00 | 0.00 | 0.00 | 53 | 1016.5 |
| 20260508070003 | 54 | 73 | 1.0 | 2.0 | 0.00 | 0.00 | 0.00 | 52 | 1016.3 |
| 20260508065403 | 54 | 73 | 1.0 | 2.0 | 0.00 | 0.00 | 0.00 | 52 | 1016.3 |
| 20260508064503 | 54 | 57 | 1.0 | 4.0 | 0.00 | 0.00 | 0.00 | 51 | 1016.3 |
| 20260508063603 | 54 | 66 | 1.0 | 3.0 | 0.00 | 0.00 | 0.00 | 52 | 1016.3 |
| 20260508062916 | 54 | 62 | 1.0 | 4.0 | 0.00 | 0.00 | 0.00 | 52 | 1016.3 |
| 20260508061803 | 54 | 0 | 0.0 | 0.0 | 0.00 | 0.00 | 0.00 | 51 | 1016.2 |
| 20260508060903 | 54 | 64 | 0.0 | 1.0 | 0.00 | 0.00 | 0.00 | 52 | 1016.0 |
| 20260508060003 | 55 | 64 | 0.0 | 1.0 | 0.00 | 0.00 | 0.00 | 51 | 1016.0 |
| 20260508055617 | 55 | 64 | 0.0 | 1.0 | 0.00 | 0.00 | 0.00 | 51 | 1016.1 |
| 20260508054503 | 56 | 47 | 0.0 | 1.0 | 0.00 | 0.00 | 0.00 | 50 | 1016.3 |
| 20260508053603 | 56 | 62 | 1.0 | 2.0 | 0.00 | 0.00 | 0.00 | 48 | 1016.2 |
| 20260508052703 | 56 | 47 | 1.0 | 3.0 | 0.00 | 0.00 | 0.00 | 47 | 1016.1 |
| 20260508051803 | 57 | 58 | 1.0 | 4.0 | 0.00 | 0.00 | 0.00 | 46 | 1016.0 |
| 20260508051118 | 58 | 64 | 1.0 | 3.0 | 0.00 | 0.00 | 0.00 | 45 | 1016.0 |
| 20260508050003 | 59 | 75 | 1.0 | 6.0 | 0.00 | 0.00 | 0.00 | 43 | 1015.9 |
| 20260508045403 | 60 | 67 | 1.0 | 6.0 | 0.00 | 0.00 | 0.00 | 40 | 1015.9 |
| 20260508044503 | 60 | 282 | 1.0 | 7.0 | 0.00 | 0.00 | 0.00 | 35 | 1015.8 |
| 20260508043603 | 59 | 317 | 1.0 | 3.0 | 0.00 | 0.00 | 0.00 | 37 | 1016.0 |
| 20260508042703 | 59 | 298 | 0.0 | 3.0 | 0.00 | 0.00 | 0.00 | 38 | 1016.0 |
| 20260508041803 | 58 | 0 | 0.0 | 0.0 | 0.00 | 0.00 | 0.00 | 40 | 1016.0 |
| 20260508040903 | 58 | 308 | 0.0 | 2.0 | 0.00 | 0.00 | 0.00 | 41 | 1015.8 |
| 20260508040003 | 58 | 0 | 0.0 | 0.0 | 0.00 | 0.00 | 0.00 | 42 | 1015.9 |
| 20260508035403 | 58 | 0 | 0.0 | 0.0 | 0.00 | 0.00 | 0.00 | 43 | 1015.8 |
| 20260508034503 | 58 | 0 | 0.0 | 0.0 | 0.00 | 0.00 | 0.00 | 42 | 1015.7 |
| 20260508033603 | 58 | 0 | 0.0 | 0.0 | 0.00 | 0.00 | 0.00 | 43 | 1015.6 |
| 20260508032703 | 59 | 0 | 0.0 | 0.0 | 0.00 | 0.00 | 0.00 | 43 | 1015.6 |
| 20260508031803 | 59 | 0 | 0.0 | 0.0 | 0.00 | 0.00 | 0.00 | 42 | 1015.3 |
| 20260508030903 | 59 | 0 | 0.0 | 0.0 | 0.00 | 0.00 | 0.00 | 42 | 1015.2 |
| 20260508030003 | 60 | 0 | 0.0 | 0.0 | 0.00 | 0.00 | 0.00 | 42 | 1015.0 |
| 20260508025403 | 60 | 0 | 0.0 | 0.0 | 0.00 | 0.00 | 0.00 | 41 | 1015.1 |
| 20260508024503 | 60 | 0 | 0.0 | 0.0 | 0.00 | 0.00 | 0.00 | 41 | 1014.8 |
| 20260508023819 | 61 | 0 | 0.0 | 0.0 | 0.00 | 0.00 | 0.00 | 40 | 1014.9 |
| 20260508022703 | 62 | 0 | 0.0 | 0.0 | 0.00 | 0.00 | 0.00 | 38 | 1014.7 |
| 20260508021803 | 62 | 167 | 0.0 | 1.0 | 0.00 | 0.00 | 0.00 | 37 | 1014.7 |
| 20260508020903 | 63 | 167 | 0.0 | 1.0 | 0.00 | 0.00 | 0.00 | 37 | 1014.6 |
| 20260508020003 | 63 | 169 | 0.0 | 1.0 | 0.00 | 0.00 | 0.00 | 36 | 1014.5 |
| 20260508015403 | 64 | 154 | 0.0 | 2.0 | 0.00 | 0.00 | 0.00 | 36 | 1014.3 |
| 20260508014503 | 64 | 181 | 0.0 | 1.0 | 0.00 | 0.00 | 0.00 | 35 | 1014.3 |
| 20260508013819 | 65 | 154 | 0.0 | 2.0 | 0.00 | 0.00 | 0.00 | 34 | 1014.3 |
| 20260508012703 | 66 | 171 | 0.0 | 3.0 | 0.00 | 0.00 | 0.00 | 34 | 1014.2 |
| 20260508011803 | 66 | 166 | 0.0 | 3.0 | 0.00 | 0.00 | 0.00 | 31 | 1014.1 |
| 20260508011117 | 67 | 170 | 0.0 | 2.0 | 0.00 | 0.00 | 0.00 | 30 | 1014.0 |
| 20260508010216 | 67 | 187 | 0.0 | 3.0 | 0.00 | 0.00 | 0.00 | 28 | 1013.9 |
| 20260508005403 | 68 | 143 | 0.0 | 1.0 | 0.00 | 0.00 | 0.00 | 30 | 1013.8 |
| 20260508004503 | 68 | 130 | 0.0 | 2.0 | 0.00 | 0.00 | 0.00 | 29 | 1013.8 |
| 20260508003603 | 68 | 113 | 1.0 | 3.0 | 0.00 | 0.00 | 0.00 | 28 | 1013.9 |
| 20260508002703 | 68 | 208 | 0.0 | 3.0 | 0.00 | 0.00 | 0.00 | 29 | 1013.9 |
| 20260508001803 | 68 | 155 | 1.0 | 4.0 | 0.00 | 0.00 | 0.00 | 28 | 1013.8 |
| 20260508000903 | 69 | 119 | 1.0 | 3.0 | 0.00 | 0.00 | 0.00 | 27 | 1013.8 |
| 20260508000003 | 69 | 133 | 0.0 | 3.0 | 0.00 | 0.00 | 0.00 | 27 | 1013.8 |
| 20260507235403 | 70 | 177 | 1.0 | 3.0 | 0.00 | 0.00 | 0.00 | 27 | 1013.9 |
| 20260507234718 | 70 | 233 | 1.0 | 3.0 | 0.00 | 0.00 | 0.00 | 27 | 1013.9 |
| 20260507233603 | 69 | 194 | 1.0 | 5.0 | 0.00 | 0.00 | 0.00 | 28 | 1013.9 |
| 20260507232703 | 69 | 198 | 1.0 | 3.0 | 0.00 | 0.00 | 0.00 | 28 | 1013.9 |
| 20260507231803 | 70 | 183 | 1.0 | 3.0 | 0.00 | 0.00 | 0.00 | 26 | 1014.1 |
| 20260507230903 | 71 | 122 | 1.0 | 3.0 | 0.00 | 0.00 | 0.00 | 26 | 1014.1 |
| 20260507230003 | 71 | 148 | 1.0 | 4.0 | 0.00 | 0.00 | 0.00 | 26 | 1014.1 |
| 20260507225403 | 71 | 187 | 1.0 | 5.0 | 0.00 | 0.00 | 0.00 | 26 | 1014.1 |
| 20260507224503 | 70 | 239 | 1.0 | 5.0 | 0.00 | 0.00 | 0.00 | 30 | 1014.1 |
| 20260507223603 | 70 | 218 | 2.0 | 4.0 | 0.00 | 0.00 | 0.00 | 29 | 1014.2 |
| 20260507222703 | 71 | 225 | 2.0 | 7.0 | 0.00 | 0.00 | 0.00 | 26 | 1014.3 |
| 20260507221803 | 72 | 196 | 1.0 | 6.0 | 0.00 | 0.00 | 0.00 | 25 | 1014.3 |
| 20260507220903 | 71 | 222 | 2.0 | 6.0 | 0.00 | 0.00 | 0.00 | 26 | 1014.2 |
| 20260507220219 | 71 | 233 | 2.0 | 7.0 | 0.00 | 0.00 | 0.00 | 26 | 1014.2 |
| 20260507215403 | 71 | 230 | 2.0 | 5.0 | 0.00 | 0.00 | 0.00 | 27 | 1014.3 |
| 20260507214503 | 70 | 243 | 1.0 | 6.0 | 0.00 | 0.00 | 0.00 | 26 | 1014.5 |
| 20260507213603 | 69 | 280 | 1.0 | 6.0 | 0.00 | 0.00 | 0.00 | 27 | 1014.5 |
| 20260507212916 | 69 | 289 | 2.0 | 7.0 | 0.00 | 0.00 | 0.00 | 26 | 1014.6 |
| 20260507211803 | 69 | 283 | 3.0 | 12.0 | 0.00 | 0.00 | 0.00 | 26 | 1014.6 |
| 20260507210903 | 69 | 279 | 6.0 | 11.0 | 0.00 | 0.00 | 0.00 | 26 | 1014.6 |
| 20260507210003 | 70 | 295 | 4.0 | 11.0 | 0.00 | 0.00 | 0.00 | 26 | 1014.8 |
| 20260507205403 | 70 | 294 | 3.0 | 8.0 | 0.00 | 0.00 | 0.00 | 26 | 1014.9 |